Location: Biltmore Gardens
(41.6070°N, 83.4666°W)
Time: 23:05:13
(UTC+00:00)

A-11 Canister half - Pass Details

Date: 20 April 2021
Orbit: 1526 x 1682 km, 47.3° (Epoch: 14 May)

Event Time Altitude Azimuth Distance (km) Brightness Sun altitude
Rises 03:51:57 0° 297° (WNW) 4,939 12.4 -32.0°
Reaches altitude 10° 03:55:20 10° 291° (WNW) 3,944 11.7 -32.3°
Maximum altitude 04:04:36 43° 225° (SW) 2,197 9.6 -33.1°
Enters shadow 04:05:01 43° 219° (SW) 2,200 9.5 -33.1°
